Date,TemperatureHighF,TemperatureAvgF,TemperatureLowF,DewpointHighF,DewpointAvgF,DewpointLowF,HumidityHigh,HumidityAvg,HumidityLow,PressureMaxIn,PressureMinIn,WindSpeedMaxMPH,WindSpeedAvgMPH,GustSpeedMaxMPH,PrecipitationSumIn
2013-1-1,27,11,0,16,6,-2,93,80,51,0.00,40.00,3,0,7,0.00
2013-1-2,32,17,4,15,10,1,87,74,46,0.00,40.00,7,0,12,0.00
2013-1-3,26,12,3,6,2,-2,86,66,39,0.00,40.00,14,3,22,0.00
2013-1-4,32,15,4,10,4,-1,88,60,37,0.00,40.00,12,3,21,0.00
2013-1-5,34,14,2,13,6,-1,89,72,40,0.00,40.00,9,1,14,0.00
2013-1-6,33,20,10,14,8,3,89,60,38,0.00,40.00,17,5,27,0.00
2013-1-7,39,22,12,15,10,5,87,63,37,0.00,40.00,14,3,24,0.00
2013-1-8,42,22,10,19,14,7,88,71,38,0.00,40.00,7,0,13,0.00
2013-1-9,42,27,17,21,16,13,91,67,41,0.00,40.00,15,4,24,0.00
2013-1-10,42,27,15,28,18,12,91,69,50,0.00,40.00,16,4,24,0.00
2013-1-11,40,25,11,29,16,2,99,70,53,0.00,40.00,23,5,32,0.20
2013-1-12,23,12,5,6,3,-1,83,66,40,0.00,40.00,9,2,18,0.00
2013-1-13,18,9,0,8,2,-6,88,75,55,0.00,40.00,8,1,15,0.00
2013-1-14,16,2,-8,3,-6,-12,87,71,46,0.00,40.00,7,1,11,0.00
2013-1-15,18,6,-7,2,-4,-12,82,64,45,0.00,40.00,11,2,19,0.00
2013-1-16,34,18,7,13,6,-3,72,58,42,0.00,40.00,12,4,23,0.00
2013-1-17,38,23,14,19,12,7,86,65,42,0.00,40.00,15,3,24,0.00
2013-1-18,40,21,13,20,13,8,89,73,42,0.00,40.00,12,3,19,0.00
2013-1-19,42,23,12,19,14,8,87,70,39,0.00,40.00,11,2,17,0.00
2013-1-20,41,23,13,18,13,7,87,67,38,0.00,40.00,9,2,16,0.00
2013-1-21,42,24,14,19,14,8,86,66,37,0.00,40.00,12,2,17,0.00
2013-1-22,43,24,13,19,13,6,85,66,37,0.00,40.00,13,-5,21,0.00
2013-1-23,40,25,16,18,14,8,86,63,38,0.00,40.00,13,3,19,0.00
2013-1-24,26,21,18,18,17,14,88,81,72,0.00,40.00,7,1,14,0.00
2013-1-25,39,36,34,38,35,34,99,95,90,0.00,40.00,0,0,1,0.00
2013-1-26,45,36,33,39,34,33,99,91,62,0.00,40.00,7,0,17,0.70
2013-1-27,44,36,33,40,35,33,99,93,74,0.00,40.00,6,0,7,1.80
2013-1-28,38,31,21,36,31,21,99,97,86,0.00,40.00,9,1,40,8.90
2013-1-29,27,18,8,21,14,7,99,85,54,0.00,40.00,1,0,34,0.30
2013-1-30,25,18,7,22,16,6,95,92,81,0.00,40.00,0,0,3,4.50
2013-1-31,40,29,15,28,24,15,97,83,56,0.00,40.00,2,0,6,0.00
2013-2-1,44,32,24,30,26,23,99,82,47,0.00,40.00,8,0,12,0.10
2013-2-2,44,28,17,26,21,17,99,78,41,0.00,40.00,9,1,12,0.00
2013-2-3,39,28,20,23,20,17,94,72,46,0.00,40.00,8,1,17,0.00
2013-2-4,45,28,17,25,19,13,94,71,42,0.00,40.00,9,1,16,0.00
2013-2-5,48,30,20,26,20,15,93,69,36,0.00,40.00,9,1,18,0.00
2013-2-6,44,32,22,34,26,19,97,77,52,0.00,40.00,9,1,16,0.00
2013-2-7,46,30,18,30,21,15,99,70,32,0.00,40.00,10,2,20,0.00
2013-2-8,48,34,22,25,19,14,73,54,34,0.00,40.00,19,7,31,0.00
2013-2-9,37,31,21,30,25,15,97,78,62,0.00,40.00,12,1,19,0.10
2013-2-10,37,27,20,21,16,12,82,65,36,0.00,40.00,6,0,9,0.00
2013-2-11,29,24,12,22,16,7,86,72,58,0.00,40.00,10,2,17,0.10
2013-2-12,33,19,6,15,10,4,89,68,40,0.00,40.00,6,0,10,0.00
2013-2-13,39,29,23,22,19,15,79,65,47,0.00,40.00,7,0,13,0.00
2013-2-14,40,30,26,29,22,16,93,72,45,0.00,40.00,11,2,22,0.60
2013-2-15,39,28,19,21,17,13,89,66,40,0.00,40.00,14,2,19,0.00
2013-2-16,44,25,17,20,15,10,79,66,38,0.00,40.00,9,2,17,0.00
2013-2-17,48,33,21,24,18,13,75,54,32,0.00,40.00,12,4,25,0.00
2013-2-18,38,28,17,17,13,9,75,53,35,0.00,40.00,14,3,22,0.00
2013-2-19,49,31,20,19,12,6,57,47,28,0.00,40.00,19,8,30,0.00
2013-2-20,47,35,27,26,18,11,66,48,35,0.00,40.00,18,7,25,0.00
2013-2-21,39,32,22,28,21,13,93,67,46,0.00,40.00,14,4,22,0.10
2013-2-22,37,25,17,25,15,7,93,67,34,0.00,40.00,17,2,19,0.00
2013-2-23,36,24,16,28,18,8,99,77,58,0.00,40.00,12,2,23,4.20
2013-2-24,33,24,12,24,20,9,99,83,62,0.00,40.00,11,0,16,1.00
2013-2-25,38,21,3,18,12,2,93,69,36,0.00,40.00,6,0,11,0.00
2013-2-26,33,26,18,25,16,11,92,67,48,0.00,40.00,21,4,25,0.20
2013-2-27,37,23,11,16,10,3,86,60,38,0.00,40.00,9,2,14,0.00
2013-2-28,39,26,12,28,12,3,93,57,36,0.00,40.00,10,2,15,0.20
2013-3-1,40,33,28,31,28,26,99,85,58,0.00,40.00,2,0,6,0.30
2013-3-2,55,36,21,30,26,20,97,70,34,0.00,40.00,4,0,8,0.00
2013-3-3,47,37,29,36,29,25,98,73,50,0.00,40.00,8,0,19,0.60
2013-3-4,42,34,21,40,24,9,99,72,32,0.00,40.00,13,2,22,1.00
2013-3-5,49,31,20,19,12,6,68,47,24,0.00,40.00,15,5,27,0.00
2013-3-6,62,42,29,27,20,14,58,44,25,0.00,40.00,19,6,28,0.00
2013-3-7,63,46,34,31,24,18,62,42,20,0.00,40.00,14,4,24,0.00
2013-3-8,59,44,36,36,26,18,95,52,29,0.00,40.00,14,5,20,0.00
2013-3-9,37,33,25,36,33,22,99,99,92,0.00,40.00,11,1,17,2.20
2013-3-10,45,30,17,24,19,14,91,67,36,0.00,40.00,7,1,13,0.00
2013-3-11,50,37,25,26,22,19,78,58,36,0.00,40.00,12,3,18,0.00
2013-3-12,57,42,32,32,28,25,81,58,34,0.00,40.00,11,1,16,0.00
2013-3-13,61,44,30,31,28,25,90,58,28,0.00,40.00,9,1,15,0.00
2013-3-14,67,48,33,32,28,23,65,47,25,0.00,40.00,10,3,16,0.00
2013-3-15,67,49,38,36,30,26,63,49,28,0.00,40.00,12,4,18,0.00
2013-3-16,60,49,41,37,32,29,63,54,42,0.00,40.00,12,4,20,0.00
2013-3-17,51,41,34,42,27,11,97,62,27,0.00,40.00,25,5,36,0.30
2013-3-18,50,38,27,20,17,10,66,43,28,0.00,40.00,19,4,29,0.00
2013-3-19,53,39,28,25,13,2,73,39,16,0.00,40.00,16,2,23,0.00
2013-3-20,50,40,29,34,17,6,74,39,29,0.00,40.00,14,5,22,0.00
2013-3-21,47,38,28,38,30,19,99,75,35,0.00,40.00,15,2,103,0.30
2013-3-22,48,34,25,26,19,13,89,58,26,0.00,40.00,23,5,33,0.00
2013-3-23,31,26,18,22,15,6,82,63,46,0.00,40.00,14,4,22,0.10
2013-3-24,33,22,15,20,10,4,82,59,35,0.00,40.00,16,2,26,0.00
2013-3-25,44,27,15,13,8,3,63,45,25,0.00,40.00,13,3,24,0.00
2013-3-26,60,41,26,26,18,10,51,39,27,0.00,40.00,14,4,24,0.00
2013-3-27,63,48,30,33,26,18,85,47,24,0.00,40.00,15,2,24,0.00
2013-3-28,67,51,37,32,27,22,54,40,25,0.00,40.00,11,3,19,0.00
2013-3-29,64,51,43,38,32,28,68,48,34,0.00,40.00,10,1,19,0.00
2013-3-30,65,49,34,36,31,-100,92,57,27,0.00,40.00,12,2,21,0.00
2013-3-31,68,50,35,33,28,22,67,45,25,0.00,40.00,11,3,20,0.00
2013-4-1,64,50,38,40,31,21,72,48,34,0.00,40.00,16,4,28,0.00
2013-4-2,55,47,40,40,35,30,92,64,40,0.00,40.00,17,6,27,0.00
2013-4-3,65,48,35,35,31,22,83,54,26,0.00,40.00,11,2,16,0.00
2013-4-4,69,52,36,34,29,25,64,44,25,0.00,40.00,14,3,20,0.00
2013-4-5,66,52,40,44,34,27,92,53,31,0.00,40.00,17,4,35,0.00
2013-4-6,64,47,32,41,33,26,99,66,28,0.00,40.00,14,2,22,0.00
2013-4-7,60,46,33,43,33,23,99,66,27,0.00,40.00,11,1,25,0.00
2013-4-8,59,49,42,42,31,26,96,52,30,0.00,40.00,17,4,29,0.10
2013-4-9,44,30,19,42,26,16,96,85,69,0.00,40.00,11,3,29,1.50
2013-4-10,42,27,12,23,16,9,90,65,37,0.00,40.00,15,2,21,0.00
2013-4-11,52,38,31,35,28,19,91,68,43,0.00,40.00,4,0,11,0.10
2013-4-12,62,46,35,39,31,21,95,62,23,0.00,40.00,10,1,18,0.00
2013-4-13,60,46,33,42,29,23,96,53,33,0.00,40.00,13,3,27,0.60
2013-4-14,49,42,36,40,22,12,94,49,26,0.00,40.00,14,4,24,0.00
2013-4-15,44,36,33,38,32,21,99,88,40,0.00,40.00,13,2,27,4.30
2013-4-16,57,41,28,37,30,23,98,68,32,0.00,40.00,20,8,34,2.40
2013-4-17,35,28,23,28,21,11,99,76,47,0.00,40.00,17,6,25,1.30
2013-4-18,37,27,17,16,13,10,87,57,34,0.00,40.00,17,4,24,0.00
2013-4-19,48,36,21,29,20,13,83,54,34,0.00,40.00,12,2,19,0.00
2013-4-20,52,41,34,42,36,29,99,82,51,0.00,40.00,10,1,14,1.20
2013-4-21,60,46,33,42,32,22,99,65,26,0.00,40.00,13,1,19,0.00
2013-4-22,61,48,38,36,30,26,79,52,29,0.00,40.00,19,3,27,0.00
2013-4-23,46,39,31,31,20,12,69,48,29,0.00,40.00,17,6,29,0.00
2013-4-24,56,43,31,23,18,14,51,37,23,0.00,40.00,15,6,25,0.00
2013-4-25,68,50,36,28,22,15,43,33,22,0.00,40.00,14,6,23,0.00
2013-4-26,70,52,35,31,25,20,55,37,21,0.00,40.00,12,2,19,0.00
2013-4-27,72,54,37,35,28,20,53,37,23,0.00,40.00,12,3,19,0.00
2013-4-28,76,58,40,38,31,24,52,37,25,0.00,40.00,14,4,20,0.00
2013-4-29,76,61,41,41,35,29,68,39,25,0.00,40.00,18,4,27,0.00
2013-4-30,72,57,46,43,37,30,80,47,30,0.00,40.00,19,3,34,0.00
2013-5-1,51,41,31,41,27,15,99,64,26,0.00,40.00,17,4,27,1.20
2013-5-2,56,40,24,25,21,15,81,50,24,0.00,40.00,11,2,16,0.00
2013-5-3,68,49,32,27,23,18,58,38,20,0.00,40.00,14,4,23,0.00
2013-5-4,73,56,38,33,28,22,53,35,21,0.00,40.00,15,4,27,0.00
2013-5-5,72,59,49,37,33,29,48,37,25,0.00,40.00,16,7,30,0.00
2013-5-6,68,54,46,48,38,29,98,58,33,0.00,40.00,12,2,22,0.10
2013-5-7,62,50,44,47,42,34,99,75,38,0.00,40.00,20,2,32,0.00
2013-5-8,52,46,42,43,41,37,98,83,64,0.00,40.00,12,3,20,0.40
2013-5-9,67,51,41,43,39,33,99,67,31,0.00,40.00,15,2,27,0.10
2013-5-10,70,54,40,39,33,-100,85,50,27,0.00,40.00,14,3,26,0.00
2013-5-11,73,57,41,40,34,-100,70,46,26,0.00,40.00,14,3,20,0.10
2013-5-12,78,60,46,44,40,35,70,48,27,0.00,40.00,11,2,15,0.00
2013-5-13,72,55,48,44,39,37,68,55,35,0.00,40.00,12,3,19,0.00
2013-6-12,94,74,54,53,44,35,50,35,23,0.00,40.00,15,5,29,0.00
2013-6-13,89,74,61,56,45,37,41,35,26,0.00,40.00,22,4,39,0.00
2013-6-14,91,71,49,49,44,31,76,41,21,0.00,40.00,12,2,19,0.00
2013-6-15,88,68,47,49,40,30,53,38,25,0.00,40.00,19,4,29,0.00
2013-6-16,83,68,55,54,47,39,58,47,36,0.00,40.00,17,6,25,0.00
2013-6-17,90,72,59,56,48,43,58,43,27,0.00,40.00,18,7,29,0.00
2013-6-18,91,74,61,55,46,34,48,37,26,0.00,40.00,16,7,24,0.00
2013-6-19,91,72,54,51,39,31,41,31,20,0.00,40.00,15,5,28,0.00
2013-7-12,88,74,62,59,58,58,85,61,35,0.00,40.00,6,2,15,0.00
2013-7-13,89,83,64,58,55,53,81,41,29,0.00,40.00,16,3,23,0.00
2013-7-14,74,66,61,61,57,54,97,73,53,0.00,40.00,11,2,21,0.00
2013-7-15,92,70,62,58,54,51,83,60,27,0.00,40.00,12,3,19,0.00
2013-7-16,91,78,61,58,56,53,77,48,33,0.00,40.00,6,3,11,0.00
2013-7-17,88,70,61,62,58,53,93,67,35,0.00,40.00,14,2,29,0.20
2013-7-18,87,74,60,60,55,49,92,54,35,0.00,40.00,17,4,33,0.00
2013-7-19,86,78,69,59,57,54,63,48,39,0.00,40.00,6,2,12,0.00
2013-7-20,85,72,59,57,54,51,75,55,39,0.00,40.00,2,0,9,0.00
2013-7-21,92,80,72,50,46,42,34,30,24,0.00,40.00,4,2,12,0.00
2013-7-22,96,74,66,53,44,39,40,34,24,0.00,40.00,2,0,11,0.00
2013-7-23,96,73,61,51,41,35,38,32,20,0.00,40.00,9,2,22,0.00
2013-7-24,89,80,65,57,52,43,50,38,32,0.00,40.00,2,0,12,0.00
2013-7-25,86,77,65,58,55,50,62,47,37,0.00,40.00,12,4,21,0.00
2013-7-26,93,74,62,59,52,44,64,48,28,0.00,40.00,15,8,25,0.00
2013-7-27,90,73,62,63,53,44,92,52,35,0.00,40.00,6,3,14,0.00